Miscellaneous Local Product
Issued by NWS North Platte, NE

Home | Current Version | Previous Version | Text Only | Print | Product List | Glossary On
Versions: 1 2 3 4 5 6 7 8 9 10 11 12 13 14 15 16 17 18 19 20 21 22 23 24 25 26 27 28 29 30 31 32 33 34 35 36 37 38 39 40 41 42 43 44 45 46 47 48 49 50
000
AXUS43 KLBF 301410
MISLBF


WESTERN AND NORTH CENTRAL NEBRASKA HOURLY WEATHER ROUNDUP
NATIONAL WEATHER SERVICE NORTH PLATTE NE
900 AM CDT SUN AUG 30 2015

NOTE: "FAIR" INDICATES FEW OR NO CLOUDS BELOW 12,000 FEET WITH NO
SIGNIFICANT WEATHER AND/OR OBSTRUCTIONS TO VISIBILITY.

NOTE: STATIONS NOT REPORTING VARIABLES SUCH AS SKY/WEATHER OR
PRESSURE ARE PROVIDED BY THE NEBRASKA DEPARTMENT OF
ROADS...RAWS...AND APRS NETWORKS...AND ARE NOT UNDER
NATIONAL WEATHER SERVICE QUALITY CONTROL.

...OBSERVATIONS IN AND NEAR THE EASTERN PANHANDLE OF NEBRASKA...

CITY           SKY/WX    TMP DP  RH WIND       PRES   REMARKS
PINE RIDGE     SUNNY     72  44  36 S15G26    29.91F
CHADRON        MOSUNNY   73  44  35 S12       29.89S
ALLIANCE       MOSUNNY   68  48  48 S7        29.99S
SIDNEY         SUNNY     68  46  45 SW10      30.04F
CRESCENT LAKE    N/A     71  50  46 S7          N/A
BIG SPRINGS      N/A     67  52  57 S6          N/A
$$

...OBSERVATIONS IN NORTH CENTRAL NEBRASKA...

CITY           SKY/WX    TMP DP  RH WIND       PRES   REMARKS
VALENTINE      SUNNY     65  53  65 SW6       29.94F
THEDFORD       SUNNY     66  54  65 S9        30.01S
AINSWORTH      MOSUNNY   65  55  70 S10       29.97F
O`NEILL        SUNNY     65  62  92 S8        29.99S
ORD            SUNNY     58  58 100 E5        30.01S
BROKEN BOW     SUNNY     63  59  87 CALM      30.02S
SPRINGVIEW       N/A     65  59  82 CALM        N/A
SARGENT          N/A     59  58  97 CALM        N/A
EWING            N/A     65  61  87 S3          N/A
$$

...OBSERVATIONS IN SOUTHWEST NEBRASKA AND FAR NORTHEAST COLORADO...

CITY           SKY/WX    TMP DP  RH WIND       PRES   REMARKS
WRAY           FAIR      71  46  40 S10G16    30.05F
HOLYOKE        FAIR      68  50  52 S9        30.04S
IMPERIAL       SUNNY     67  48  50 S10       30.04S
OGALLALA       SUNNY     63  49  61 S6        30.03R
NORTH PLATTE   SUNNY     62  56  80 CALM      30.03S
MCCOOK         SUNNY     61  54  77 CALM      30.05S
LEXINGTON      SUNNY     63  61  93 SE5       30.04S
PAXTON           N/A     59  54  84 CALM        N/A
BRADY            N/A     62  56  82 CALM        N/A
CALLAWAY         N/A     63  62  95 S8          N/A
$$

...OBSERVATIONS IN CENTRAL LINCOLN COUNTY AREA...

CITY           SKY/WX    TMP DP  RH WIND       PRES   REMARKS
N.P. AIRPORT   SUNNY     62  56  80 CALM      30.03S
N.P. DOWNTOWN    N/A     64  55  72 CALM        N/A
N.P. SOUTHEAST   N/A     63  55  76 CALM        N/A
$$

...SOME OBSERVATIONS FROM AROUND THE REGION...

CITY           SKY/WX    TMP DP  RH WIND       PRES   REMARKS
DENVER         PTSUNNY   70  43  37 SW3       30.12R
LARAMIE        MOSUNNY   59  37  44 SW12      30.23S
CHEYENNE       SUNNY     68  40  35 W9        30.14S
SCOTTSBLUFF    SUNNY     64  48  56 E5        29.99R
RAPID CITY     SUNNY     67  51  56 SE6       29.84S
PIERRE         MOSUNNY   72  56  57 SE10      29.82S
WINNER         FAIR      71  54  54 S20       29.89S
SIOUX FALLS    CLOUDY    62  61  96 S12       29.99F FOG
OMAHA          CLOUDY    64  61  90 S8        30.06R FOG
GRAND ISLAND   CLOUDY    64  62  93 S7        30.05S
KANSAS CITY    FOG       68  64  87 SE5       30.05R VSB 1/4
WICHITA        FOG       65  63  93 N3        30.06R VSB 1/2
HAYS           CLOUDY    57  52  82 CALM      30.07S VSB 1/2
LIBERAL        SUNNY     61  54  77 CALM      30.10S
GOODLAND       MOSUNNY   65  50  58 S10       30.09S
$$



USA.gov is the U.S. government's official web portal to all federal, state and local government web resources and services.